Simultaneous Nadir Overpasses (SNOs) Predictions

Prediction of SNOs between AQUA and METOP-A Satellite Orbit:

Table of predicted SNOs for the next 14.0 days since TLE Epoch: 5/23/2015
Index Date (AQUA) Time (AQUA) Lat,Lon (AQUA) SZA (AQUA ) Date (METOP-A) Time (METOP-A) Lat,Lon (METOP-A) SZA (METOP-A ) Distance(km) Time Diff (sec)
1 05/25/2015 20:46:45 73.88,-137.36 52.86 05/25/2015 20:46:13 73.91,-137.32 52.89 3.36 32
2 05/25/2015 21:36:12 -73.94, 30.15 127.09 05/25/2015 21:36:54 -73.94, 30.07 127.09 2.59 42
3 05/28/2015 16:21:03 73.89, -70.95 52.39 05/28/2015 16:20:34 73.89, -70.97 52.40 0.51 29
4 05/28/2015 17:10:30 -73.95, 96.56 127.56 05/28/2015 17:11:14 -73.97, 96.55 127.54 2.64 44
5 05/31/2015 11:55:21 73.93, -4.61 52.01 05/31/2015 11:54:54 73.91, -4.51 51.99 3.33 27
6 05/31/2015 12:44:48 -73.98, 162.91 127.95 05/31/2015 12:45:34 -73.99, 163.01 127.94 3.32 46
7 06/03/2015 07:29:36 73.88, 61.91 51.59 06/03/2015 07:29:14 73.88, 61.81 51.59 3.21 22
8 06/03/2015 08:19:04 -73.99,-130.69 128.30 06/03/2015 08:19:54 -73.96,-130.66 128.34 3.57 50




NCC Satellite Simultaneous Nadir Overpasses (SNOs) Prediction Service
